www.pogodaiklimat.ru

Погода и климат >> Архив погоды >> Франция >> Чарвилл


ПОГОДА в Чарвилле

  • Прогноз погоды в Чарвилле
  • Монитор погоды в Чарвилле

АРХИВ ПОГОДЫ в Чарвилле

Время (UTC), дата Ветер
(напр.,м/с)
 
Видим.   Явления Облачность Т
(С)
Тd
(С)
f
(%)
Тe
(С)
Тes
(С)
Комфортность P
(гПа)
Po
(гПа)
Тmin
(С)
Tmax
(С)
R
(мм)
R24
(мм)
S
(см)
13 18.06 ЮВ 2 19 км н/о +26.5 +13.9 46 +29 +29 жарко 1013.1 996.3
14 18.06 В 1 20 км н/о +27.0 +13.7 44 +29 +29 жарко 1012.5 995.7
15 18.06 Ю 1
{6}
20 км н/о +26.9 +13.3 43 +29 +29 жарко 1012.1 995.3 0
16 18.06 Ю 2 20 км н/о +27.2 +12.0 39 +28 +28 жарко 1011.5 994.7
17 18.06 ЮВ 1 20 км н/о +26.0 +14.1 48 +28 +28 жарко 1011.1 994.3
18 18.06 ЮВ 1
{4}
20 км 8/0
[]
+23.9 +14.9 57 +27 +27 жарко 1011.1 994.2 +16.4 +27.6 0
19 18.06 ЮВ 1 20 км 9/9
[]
+21.7 +16.4 72 +26 +26 душно 1011.1 994.1
20 18.06 штиль 0 20 км н/о +18.8 +15.1 79 +20 +20 1011.2 994.0
21 18.06 ЮВ 1
{2}
20 км н/о +16.3 +14.5 89 +18 +18 1011.2 993.8 0
22 18.06 Ю 1 19 км н/о +14.9 +13.8 93 +16 +16 1010.8 993.4
23 18.06 ЮВ 1 20 км н/о +14.4 +13.4 94 +15 +15 1010.5 993.0
00 19.06 ЮВ 1
{1}
12 км н/о +13.6 +12.8 95 +14 +14 1010.0 992.5 0
01 19.06 В 1 1000 м туман местами н/о +12.6 +12.0 96 +13 +13 1009.5 991.9
02 19.06 В 1 11 км н/о +12.0 +11.4 96 +13 +13 1009.1 991.5
03 19.06 ЮВ 1
{2}
500 м туман н/о +12.0 +11.5 97 +13 +13 1008.7 991.1 0
04 19.06 Ю 1 3500 м дымка н/о +12.6 +12.0 96 +13 +13 1008.0 990.5
05 19.06 В 1 15 км н/о +15.3 +14.7 96 +16 +16 1008.2 990.8
06 19.06 ЮВ 2
{5}
19 км н/о +18.9 +16.7 87 +21 +21 комфорт 1008.1 991.0 +11.7 +23.9 0
07 19.06 Ю 2 19 км н/о +22.6 +16.2 67 +27 +27 душно 1008.7 991.8
08 19.06 Ю 1 20 км 10/10
[]
+22.8 +17.0 70 +28 +28 душно 1008.9 992.0
09 19.06 ЮВ 1
{3}
8000 м 9/0
[]
+23.4 +17.6 70 +29 +30 душно 1008.7 991.8 0.0 0
10 19.06 Ю 1 20 км 10/10 800 м
[]
+21.8 +19.2 85 +27 +27 душно 1008.7 991.7 0.6
11 19.06 Ю 2 18 км н/о +25.3 +16.4 58 +29 +29 душно 1008.7 991.9
12 19.06 Ю 3
{9}
20 км 10/10 1000 м
[]
+25.3 +15.0 53 +28 +35 жарко 1008.6 991.8 0.6 0
13 19.06 Ю 3 18 км 8/8
[]
+26.7 +16.0 52 +30 +33 душно 1007.9 991.2
14 19.06 Ю 4 20 км н/о +26.7 +15.1 49 +29 +29 жарко 1007.3 990.6
15 19.06 ЮЗ 3
{11}
20 км 9/0
[]
+25.7 +15.1 52 +29 +29 душно 1007.6 990.8 0
16 19.06 З 4 20 км н/о +22.1 +14.5 62 +25 +25 комфорт 1008.2 991.2
17 19.06 З 2 20 км н/о +21.3 +15.2 68 +24 +24 комфорт 1008.3 991.3
18 19.06 Ю 1
{4}
20 км н/о +21.0 +17.6 81 +27 +27 душно 1008.5 991.5 +19.1 +27.4 0.4 0
19 19.06 ЮЗ 1 19 км 10/10
[]
+21.1 +16.5 75 +25 +25 комфорт 1008.8 991.8
20 19.06 ЮЗ 2 20 км н/о +20.6 +14.5 68 +24 +24 комфорт 1009.3 992.2
21 19.06 З 1
{10}
18 км 10/10 1000 м
[]
+18.3 +14.6 79 +20 +20 1010.3 993.1 0
22 19.06 ЮВ 1 20 км н/о +15.7 +13.9 89 +17 +17 1010.8 993.4
23 19.06 З 1 20 км 10/6 540 м
[]
+16.7 +14.3 86 +18 +18 1011.4 994.1
00 20.06 З 1
{5}
20 км 10/10 300 м
[]
+16.6 +14.2 86 +18 +18 1011.4 994.1 0
01 20.06 Ю 1 15 км 8/8 400 м
[]
+14.9 +13.4 91 +16 +16 1011.7 994.2
02 20.06 С 1 15 км 9/9 400 м
[]
+14.1 +13.1 94 +15 +15 1011.9 994.4
03 20.06 З 1
{3}
17 км 10/10 300 м
[]
+15.1 +13.6 91 +16 +16 1012.2 994.7 0
04 20.06 ЮВ 1 9000 м 10/4 420 м
[]
+14.7 +13.6 93 +16 +16 1012.4 994.9
05 20.06 В 1 11 км 10/10 420 м
[]
+15.3 +14.3 94 +16 +16 1012.5 995.1
06 20.06 СВ 1
{2}
13 км 10/10 300 м
[]
+15.9 +14.4 91 +17 +17 1012.5 995.1 +14.0 +21.5 0.0 0
07 20.06 ЮЗ 1 17 км 10/10 450 м
[]
+16.8 +14.3 85 +18 +18 1012.8 995.4 0.0
08 20.06 СЗ 1 8000 м 10/10 240 м
[]
+16.1 +14.8 92 +17 +17 1013.0 995.6 0.2
09 20.06 СЗ 2
{6}
4700 м дождь 10/10 100 м
[]
+15.0 +14.2 95 +15 +15 1013.4 995.9 0.8 0
10 20.06 СЗ 1 11 км слаб. дождь 10/10 180 м
[]
+15.5 +14.7 95 +16 +16 1013.5 996.1 0.0
11 20.06 З 2 20 км 10/10 240 м
[]
+17.7 +14.8 83 +18 +18 1013.8 996.5 0.0
12 20.06 З 3
{8}
20 км 10/10 300 м
[]
+17.8 +13.7 77 +18 +19 1014.2 996.9 0.0 0
13 20.06 З 2 20 км 10/6 540 м
[]
+19.1 +13.9 72 +21 +24 комфорт 1014.3 997.0
14 20.06 З 2 20 км 10/3 1000 м
[]
+21.0 +13.9 64 +24 +29 комфорт 1014.1 997.0
15 20.06 СЗ 4
{11}
19 км н/о +20.9 +13.1 61 +24 +24 комфорт 1014.3 997.1 0
16 20.06 З 3 20 км н/о +20.1 +12.3 61 +22 +22 комфорт 1014.5 997.3
17 20.06 З 2 20 км 10/10 1500 м
[]
+19.6 +12.4 63 +22 +22 комфорт 1014.8 997.6
18 20.06 З 2
{7}
20 км 10/10 1500 м
[]
+18.8 +11.8 64 +20 +20 1015.4 998.1 +14.8 +21.6 0
19 20.06 З 2 20 км н/о +17.8 +11.6 67 +19 +19 1016.1 998.7
20 20.06 З 1 20 км н/о +15.7 +11.3 75 +17 +17 1016.7 999.2
21 20.06 СЗ 1
{2}
20 км н/о +12.7 +10.2 85 +14 +14 1017.5 999.8 0
22 20.06 штиль 0 500 м туман н/о +10.5 +9.4 93 +10 +10 1018.4 1000.5
23 20.06 З 1 19 км н/о +9.3 +8.4 94 +10 +10 1018.8 1000.8
00 21.06 З 1
{2}
20 км 9/0
[]
+8.9 +8.3 96 +9 +9 1019.1 1001.1 0
01 21.06 СЗ 1 17 км н/о +8.5 +7.9 96 +8 +8 1019.2 1001.2
02 21.06 штиль 0 1300 м дымка 10/10
[]
+7.4 +6.7 95 +6 +6 1019.5 1001.4
03 21.06 ЮЗ 1
{1}
19 км н/о +7.0 +6.4 96 +7 +7 1019.6 1001.5 0
04 21.06 З 1 900 м туман ?/? +6.7 +6.3 97 +7 +7 1020.1 1001.9
05 21.06 штиль 0 12 км н/о +8.9 +8.6 98 +8 +8 1020.2 1002.2
06 21.06 С 1
{2}
20 км н/о +12.4 +9.9 85 +13 +13 1020.4 1002.6 +5.7 +18.8 0
07 21.06 СВ 1 20 км н/о +14.8 +9.6 71 +16 +16 1020.3 1002.7
08 21.06 З 2 20 км н/о +15.8 +9.9 68 +16 +16 1020.4 1002.8
09 21.06 З 2
{6}
20 км н/о +17.3 +8.4 56 +18 +18 1020.4 1002.9 0
10 21.06 З 2 20 км н/о +18.3 +8.5 53 +19 +19 1020.4 1003.0
11 21.06 СЗ 3 20 км н/о +19.2 +8.5 50 +20 +20 1020.5 1003.1
12 21.06 СЗ 2
{9}
20 км н/о +19.8 +8.5 48 +22 +22 комфорт 1020.2 1002.9 0
13 21.06 З 2 20 км н/о +20.5 +7.8 44 +22 +22 комфорт 1020.1 1002.8
14 21.06 З 2 20 км н/о +20.6 +8.6 46 +23 +23 комфорт 1020.0 1002.7
15 21.06 З 2
{8}
20 км н/о +21.2 +8.5 44 +22 +22 комфорт 1019.5 1002.2 0
16 21.06 СЗ 2 20 км н/о +20.8 +8.4 45 +23 +23 комфорт 1019.5 1002.2
17 21.06 З 2 20 км 10/10 1500 м
[]
+21.5 +9.4 46 +23 +23 комфорт 1019.5 1002.3
18 21.06 СЗ 3
{8}
20 км 9/9 1500 м
[]
+20.2 +8.8 48 +22 +22 комфорт 1019.7 1002.4 +12.3 +22.0 0
19 21.06 С 2 20 км н/о +18.1 +9.7 58 +19 +19 1020.3 1002.9
20 21.06 СЗ 1 20 км н/о +16.5 +9.4 63 +17 +17 1021.1 1003.5
21 21.06 З 2
{4}
20 км н/о +14.9 +9.7 71 +15 +15 1021.6 1003.9 0
22 21.06 СЗ 1 20 км н/о +12.5 +9.5 82 +12 +12 1022.0 1004.2
23 21.06 З 1 20 км н/о +10.6 +9.0 90 +10 +10 1022.0 1004.1
00 22.06 СЗ 1
{5}
20 км н/о +12.8 +8.5 75 +14 +14 1021.7 1003.9 0
01 22.06 Ю 1 20 км н/о +10.4 +7.3 81 +11 +11 1021.8 1003.9
02 22.06 СЗ 1 20 км н/о +10.8 +7.7 81 +11 +11 1021.4 1003.5
03 22.06 ЮВ 1
{6}
20 км н/о +10.6 +7.7 82 +11 +11 1021.4 1003.5 0
04 22.06 З 1 20 км н/о +9.8 +7.0 83 +10 +10 1021.1 1003.1
05 22.06 СВ 1 20 км н/о +10.9 +8.6 86 +11 +11 1021.2 1003.3
06 22.06 СЗ 1
{3}
20 км н/о +14.2 +10.6 79 +15 +15 1020.6 1002.9 +9.6 +20.4 0
07 22.06 ЮВ 1 20 км н/о +18.0 +10.8 63 +20 +20 1020.2 1002.8
08 22.06 С 1 20 км н/о +20.0 +10.7 55 +23 +23 комфорт 1019.8 1002.5
09 22.06 СВ 2
{6}
20 км н/о +21.7 +10.8 50 +24 +24 комфорт 1019.4 1002.2 0
10 22.06 СВ 2 20 км н/о +22.9 +9.3 42 +24 +24 комфорт 1019.0 1001.9
11 22.06 В 2 17 км н/о +23.7 +9.7 41 +25 +25 комфорт 1018.9 1001.8
12 22.06 С 2
{7}
19 км н/о +24.2 +10.8 43 +25 +25 комфорт 1018.4 1001.4 0
13 22.06 В 1 20 км 10/10 1500 м
[]
+23.6 +11.0 45 +25 +25 комфорт 1018.2 1001.1
14 22.06 С 2 20 км 10/10 1500 м
[]
+23.5 +11.5 47 +25 +25 комфорт 1018.1 1001.0
15 22.06 СВ 2
{8}
20 км н/о +24.9 +12.5 46 +27 +27 жарко 1017.4 1000.4 0
16 22.06 В 2 20 км н/о +24.7 +11.3 43 +26 +26 жарко 1017.0 1000.0
17 22.06 С 2 20 км 10/10 1500 м
[]
+24.4 +12.4 47 +26 +26 жарко 1016.9 999.9
18 22.06 С 2
{5}
20 км н/о +24.0 +12.6 49 +26 +26 жарко 1016.9 999.9 +14.3 +25.5 0
19 22.06 СВ 1 20 км н/о +22.7 +13.2 55 +26 +26 жарко 1017.2 1000.1
20 22.06 СВ 1 20 км н/о +19.1 +12.8 67 +22 +22 комфорт 1017.6 1000.3
21 22.06 З 1
{3}
20 км н/о +18.2 +12.6 70 +20 +20 1018.2 1000.8 0
22 22.06 З 1 19 км н/о +15.2 +11.8 80 +16 +16 1018.4 1000.8
23 22.06 Ю 1 20 км н/о +15.0 +11.4 79 +16 +16 1018.3 1000.7
00 23.06 СЗ 1
{4}
19 км н/о +13.7 +11.2 85 +15 +15 1018.1 1000.4 0
01 23.06 Ю 1 15 км н/о +12.5 +10.7 89 +13 +13 1018.1 1000.4
02 23.06 штиль 0 11 км н/о +11.8 +10.4 91 +11 +11 1018.3 1000.5
03 23.06 З 1
{2}
8000 м н/о +11.5 +10.2 92 +12 +12 1018.4 1000.6 0
04 23.06 штиль 0 200 м туман н/о +11.0 +10.4 96 +10 +10 1018.1 1000.3
05 23.06 штиль 0 11 км н/о +14.7 +12.9 89 +14 +14 1018.1 1000.5
06 23.06 В 1
{2}
20 км н/о +19.0 +14.3 74 +22 +22 комфорт 1017.8 1000.5 +10.7 +24.0 0
07 23.06 ЮВ 2 20 км н/о +21.3 +14.9 67 +24 +24 комфорт 1017.5 1000.3
08 23.06 ЮВ 2 16 км н/о +24.1 +16.1 61 +27 +27 жарко 1016.9 999.9
09 23.06 ЮВ 2
{7}
1500 м дымка н/о +25.2 +15.5 55 +28 +28 жарко 1016.9 1000.0 0
10 23.06 ЮВ 2 17 км н/о +26.8 +16.1 52 +30 +30 душно 1016.1 999.3
11 23.06 ЮВ 3 8000 м н/о +27.6 +15.3 47 +30 +30 жарко 1015.9 999.1
12 23.06 ЮВ 3
{10}
20 км н/о +28.2 +16.1 48 +31 +31 душно 1015.8 999.1 0
13 23.06 ЮВ 3 20 км н/о +28.0 +16.0 48 +31 +31 душно 1015.8 999.0
14 23.06 В 6
{10}
20 км н/о +27.6 +16.2 50 +31 +31 душно 1015.5 998.7
15 23.06 ЮВ 3
{10}
20 км н/о +28.2 +15.8 47 +31 +31 душно 1015.4 998.7 0
16 23.06 ЮВ 3 19 км н/о +28.1 +15.7 47 +31 +31 душно 1015.1 998.4
17 23.06 ЮВ 3 20 км н/о +27.7 +15.4 47 +31 +31 душно 1015.0 998.2
18 23.06 ЮВ 2
{9}
20 км н/о +26.6 +15.9 52 +30 +30 душно 1015.2 998.4 +19.0 +28.6 0
19 23.06 ЮВ 2 20 км н/о +25.3 +15.6 55 +28 +28 жарко 1015.6 998.7
20 23.06 В 2 20 км 10/10
[]
+22.5 +15.3 64 +26 +26 жарко 1016.1 999.0
21 23.06 В 1
{5}
20 км н/о +20.2 +15.2 73 +24 +24 комфорт 1016.6 999.4 0
22 23.06 штиль 0 20 км н/о +17.7 +15.0 84 +18 +18 1017.1 999.7
23 23.06 В 1 20 км н/о +16.3 +14.5 89 +18 +18 1017.5 1000.0
00 24.06 ЮВ 1
{1}
19 км н/о +15.6 +14.5 93 +17 +17 1017.6 1000.1 0
01 24.06 штиль 0 14 км н/о +15.1 +14.3 95 +15 +15 1017.7 1000.2
02 24.06 штиль 0 9000 м н/о +14.5 +13.5 94 +14 +14 1017.6 1000.0
03 24.06 штиль 0
{1}
12 км н/о +14.0 +13.4 96 +14 +14 1017.5 999.9 0
04 24.06 ЮВ 1 14 км 10/10
[]
+14.4 +13.9 97 +15 +15 1017.4 999.8
05 24.06 СВ 1 15 км н/о +14.5 +13.7 95 +16 +16 1017.6 1000.0
06 24.06 ЮВ 1
{4}
20 км н/о +21.0 +16.8 77 +26 +26 душно 1017.6 1000.4 +13.6 +26.6 0
07 24.06 ЮВ 3 20 км н/о +23.1 +17.1 69 +28 +28 душно 1017.6 1000.5
08 24.06 ЮВ 2 19 км н/о +24.4 +17.4 65 +28 +28 душно 1017.3 1000.3
09 24.06 ЮВ 2
{7}
6000 м н/о +26.6 +17.9 59 +31 +31 душно 1016.9 1000.1 0
10 24.06 В 2 19 км н/о +27.9 +18.3 56 +33 +33 очень
душно
1016.8 1000.0
11 24.06 В 3 20 км н/о +29.3 +18.4 52 +34 +34 очень
душно
1016.5 999.8
12 24.06 ЮВ 2
{8}
19 км н/о +29.6 +17.4 48 +34 +34 очень
душно
1016.7 1000.0 0
13 24.06 В 1 20 км н/о +30.8 +17.8 46 +35 +35 очень
душно
1016.5 999.9
14 24.06 Ю 1 20 км н/о +31.5 +16.3 40 +34 +34 душно 1016.2 999.6
15 24.06 В 1
{6}
18 км н/о +31.5 +17.4 43 +35 +35 очень
душно
1016.2 999.6 0
16 24.06 В 1 20 км н/о +31.1 +16.3 41 +34 +34 душно 1015.8 999.2
17 24.06 ЮВ 2 17 км н/о +29.8 +15.9 43 +33 +33 душно 1015.7 999.0
18 24.06 ЮВ 1
{4}
20 км н/о +29.6 +18.4 51 +34 +34 очень
душно
1015.7 999.0 +21.0 +31.7 0
19 24.06 В 1 20 км н/о +27.9 +20.2 63 +34 +34 очень
душно
1015.8 999.1
20 24.06 СВ 1 20 км н/о +24.4 +18.3 69 +29 +29 душно 1016.0 999.1
21 24.06 штиль 0
{2}
18 км н/о +21.2 +17.6 80 +25 +25 комфорт 1016.5 999.4 0
22 24.06 Ю 1 10 км н/о +19.1 +17.1 88 +22 +22 комфорт 1016.5 999.2
23 24.06 ЮЗ 1 19 км н/о +18.4 +17.1 92 +21 +21 комфорт 1016.2 998.9
00 25.06 штиль 0
{2}
10 км н/о +16.7 +15.6 93 +17 +17 1016.4 999.0 0
01 25.06 ЮВ 1 13 км н/о +16.6 +15.8 95 +18 +18 1016.1 998.7
02 25.06 В 1 5000 м 10/10
[]
+16.1 +15.5 96 +17 +17 1016.1 998.6
03 25.06 Ю 1
{2}
10 км 10/0
[]
+16.8 +16.3 97 +18 +18 1015.6 998.2 0
05 25.06 В 1 13 км н/о +17.2 +16.7 97 +19 +19 1016.1 998.7
06 25.06 ЮВ 2
{5}
17 км н/о +22.8 +18.6 77 +29 +29 очень
душно
1015.8 998.8 +15.9 +30.1 0
07 25.06 ЮВ 2 15 км н/о +24.9 +18.8 69 +30 +30 душно 1016.0 999.1
08 25.06 ЮВ 2 17 км н/о +26.6 +19.2 64 +32 +32 очень
душно
1015.9 999.1
09 25.06 ЮВ 2
{8}
14 км н/о +28.4 +19.6 59 +34 +34 очень
душно
1015.9 999.2 0
10 25.06 ЮВ 2 19 км н/о +29.8 +19.2 53 +35 +35 очень
душно
1016.1 999.5
11 25.06 Ю 2 19 км н/о +30.8 +20.1 53 +37 +37 очень
душно
1016.4 999.8

 

Местоположение метеостанции Чарвилл (Франция): широта 49.78 долгота 4.63 высота над уровнем моря 148 м.

В архиве по умолчанию представлена погода в Чарвилле за последнюю неделю. Архивные данные за месяц целиком и за предыдущие месяцы, начиная с января 2011 года, Вы можете получить, выбрав интересующий диапазон дат из раскрывающегося списка и нажав кнопку "Ввод!".


*Определитесь, кто Вы:
робот инопланетянин человек

Внимание! Время в таблицах - всемирное. Для получения местного времени необходимо прибавить поправку, которая равна 1 ч.

Смотрите также архив погоды в соседних городах и на ближайших метеорологических станциях:

Погода в Дурбе (Бельгия) (36 км)
Погода во Флорене (Бельгия) (50 км)
Погода в Сент-Губерте (Бельгия) (62 км)
Погода в Гумане (Бельгия) (64 км)
Погода в Бюзеноле (Бельгия) (71 км)
Погода в Реймс аэропорту (Франция) (73 км)
Погода в Шарлеруа (Бельгия) (78 км)
Погода в Эрнаже (Бельгия) (99 км)
Погода в Сен-Кантене (Франция) (103 км)
Погода в Шьевре (Бельгия) (105 км)

Пояснения к столбцам:

Ветер - указаны скорость ветра в м/с - средняя за 10 мин, порывы в срок и между сроками (в фигурных скобках) и направление, откуда дует ветер: С - северный, СВ - северо-восточный, В - восточный, ЮВ - юго-восточный, Ю - южный, ЮЗ - юго-западный, З - западный, СЗ - северо-западный.
Видимость - горизонтальная дальность видимости в метрах или километрах. При видимости от 1 до 10 км при отсутствии осадков обычно наблюдается дымка, при ухудшении видимости до 1 км и менее - туман. В сухую погоду видимость может ухудшаться дымом, пылью или мглою.
Явления - указаны атмосферные явления, наблюдавшиеся в срок или в последний час перед сроком; фигурными скобками обозначены явления, наблюдавшиеся между сроками (за 1-3 часа до срока); квадратными скобками обозначены град или гололедные отложения с указанием их диаметра в мм.
Облачность - указаны через наклонную черту общая и нижняя облачность в баллах и высота нижней границы облаков в метрах; квадратными скобками обозначены формы облаков: Ci - перистые, Cs - перисто-слоистые, Cc - перисто-кучевые, Ac - высококучевые, As - высокослоистые, Sc - слоисто-кучевые, Ns - слоисто-дождевые, Cu - кучевые, Cb - кучево-дождевые. Подробнее классификацию облаков см. в Атласе облаков (PDF).
T - Температура воздуха - температура, измеренная на высоте 2 м над землей.
Td - Температура точки росы - температура, при понижении до которой содержащийся в воздухе водяной пар достигнет насыщения.
f - Относительная влажность воздуха - влажноcть воздуха, измеренная на высоте 2 м над землей.
Te - Эффективная температура - температура, которую ощущает одетый по сезону человек в тени. Характеристика душности погоды. При расчете учитывается влияние влажности воздуха и скорости ветра на теплоощущения человека.
Tes - Эффективная температура на солнце - температура, которую ощущает человек, с поправкой на солнечный нагрев. Характеристика знойности погоды. Зависит от высоты солнца над горизонтом, облачности и скорости ветра. Ночью, в пасмурную погоду, а также при ветре 12 м/с и более поправка равна нулю.
P - Атмосферное давление - приведенное к уровню моря атмосферное давление.
Po - Атмосферное давление - измеренное на уровне метеостанции атмосферное давление.
Tmin - Минимальная температура - минимум температуры воздуха на высоте 2 м над землей.
Tmax - Максимальная температура - максимум температуры воздуха на высоте 2 м над землей.
R - Количество осадков - Количество выпавших осадков за период времени, мм. При наведении курсора мыши на число - период времени, за который выпало указанное количество осадков.
R24 - Количество осадков - Количество выпавших осадков за 24 часа, мм.
S - Снежный покров - Высота снежного покрова, см. При наведении курсора мыши на число - состояние снежного покрова и степень покрытия местности в баллах.